Location: Bottom School (historical)
(37.9078°N, 89.3593°W)
Time: 22:50:11
(UTC+00:00)

STRAND 1 - Pass Details

Date: 03 April 2023
Orbit: 767 x 779 km, 98.4° (Epoch: 28 May)

Event Time Altitude Azimuth Distance (km) Brightness Sun altitude
Rises 00:42:46 0° 13° (NNE) 3,244 ? -5.0°
Reaches altitude 10° 00:45:05 10° 14° (NNE) 2,313 ? -5.5°
Maximum altitude 00:50:11 85° 102° (ESE) 775 ? -6.5°
Drops below altitude 10° 00:55:16 10° 192° (SSW) 2,299 ? -7.4°
Sets 00:57:34 0° 193° (SSW) 3,222 ? -7.9°
